Location: Roc des P�zouls
(43.9667°N, 3.5500°E)
Time: 12:44:36
(UTC+00:00)

Meteor 1-31 Rocket - Pass Details

Date: 14 November 2019
Orbit: 521 x 547 km, 97.6° (Epoch: 05 December)

Event Time Altitude Azimuth Distance (km) Brightness Sun altitude
Rises 04:22:56 0° 13° (NNE) 2,672 6.5 -24.4°
Reaches altitude 10° 04:25:02 10° 14° (NNE) 1,781 5.5 -24.1°
Enters shadow 04:28:06 55° 22° (NNE) 642 3.1 -23.5°
